SPACEBEE-61 (47431 NORAD) Tracking and Keplerian Element Data
This shows tracking and keplerian element data for the satellite.
Feedback or suggestion? Click here.
Element | Value |
Catalog | 47431 |
Name | SPACEBEE-61 |
Epoch Orbit | 1353 |
Epoch Day | 105.82348585 |
Epoch Year | 2021 |
RAAN | 168.0756 |
Inclination | 97.5003 |
Eccentricity | 0.0005379 |
Argument of Perigee | 338.2744 |
Mean Anonmoly | 21.8257 |
Mean Motion | 15.11831574 |
Decay Rate | 1.927E-05 |
L1 | 1 47431U 21006U 21105.82348585 .00001927 00000-0 11653-3 0 9998 |
L2 | 2 47431 97.5003 168.0756 0005379 338.2744 21.8257 15.11831574 13536 |
Live tracking and technical data element details for SPACEBEE-61 (NORAD 47431). SPACEBEE-61 can be tracked NOW for your location showing map with azimuth and elevation plus other details from your city location.
Track the satellite on the map from your city or location and see movement details for azimuth, elevation, latitude, longitude, range, height, and movement on the map or in text.
IsCatalogInMostPopularTable: catalog: 47431, numindb: 16
Update: records affected: 1
GetName: 47431 SPACEBEE-61
Hit Count: updated at: Fri, 16 Apr 2021 11:02:43 GMT